This is the latest recevied weather packets stored in our database for station/object KD2ZLA. If no packets are shown the sender has not sent any weather packets the latest 10 day(s).
| Time | Temp. | Humidity | Pressure | Rain* | Wind** | Luminosity | Snow |
|---|---|---|---|---|---|---|---|
| 1777516711 | 11.11° C | 97% | 1005.3 hPa | 3.05 mm | - | 0 W/m² | - |
| 1777516407 | 11.11° C | 97% | 1005.4 hPa | 2.29 mm | - | 0 W/m² | - |
| 1777516103 | 11.11° C | 97% | 1005.4 hPa | 3.56 mm | - | 0 W/m² | - |
| 1777515800 | 11.67° C | 97% | 1005.6 hPa | 3.05 mm | - | 0 W/m² | - |
| 1777515497 | 11.67° C | 97% | 1005.8 hPa | 3.56 mm | - | 0 W/m² | - |
| 1777515194 | 11.67° C | 97% | 1005.9 hPa | 3.56 mm | - | 0 W/m² | - |
| 1777514890 | 11.67° C | 97% | 1005.8 hPa | 3.05 mm | - | 0 W/m² | - |
| 1777514586 | 11.67° C | 97% | 1005.8 hPa | 3.05 mm | - | 0 W/m² | - |
| 1777514285 | 11.67° C | 97% | 1006.2 hPa | 2.29 mm | - | 0 W/m² | - |
| 1777513980 | 11.67° C | 97% | 1006 hPa | 2.29 mm | - | 0 W/m² | - |
| 1777513678 | 11.67° C | 97% | 1006.1 hPa | 4.32 mm | - | 0 W/m² | - |
| 1777513375 | 11.67° C | 97% | 1006.1 hPa | 4.83 mm | - | 0 W/m² | - |
| 1777513070 | 11.67° C | 97% | 1006.3 hPa | 4.83 mm | - | 0 W/m² | - |
| 1777512767 | 11.67° C | 97% | 1006.4 hPa | 5.33 mm | - | 0 W/m² | - |
| 1777512160 | 11.67° C | 97% | 1006.3 hPa | 4.83 mm | - | 0 W/m² | - |
| 1777511858 | 11.67° C | 97% | 1006.3 hPa | 5.33 mm | - | 0 W/m² | - |
| 1777510347 | 11.67° C | 97% | 1006.4 hPa | 3.05 mm | - | 0 W/m² | - |
| 1777509740 | 11.67° C | 97% | 1006.6 hPa | 2.29 mm | - | 0 W/m² | - |
| 1777509134 | 11.67° C | 97% | 1006.5 hPa | 2.29 mm | - | 0 W/m² | - |
| 1777508830 | 11.67° C | 97% | 1006.7 hPa | 3.05 mm | - | 0 W/m² | - |
| 1777508527 | 11.67° C | 96% | 1006.5 hPa | 3.56 mm | - | 0 W/m² | - |
| 1777508224 | 11.67° C | 96% | 1006.6 hPa | 3.56 mm | - | 0 W/m² | - |
| 1777507921 | 11.67° C | 96% | 1006.7 hPa | 2.29 mm | - | 0 W/m² | - |
| 1777507618 | 11.67° C | 96% | 1006.6 hPa | 2.29 mm | - | 0 W/m² | - |
| 1777507315 | 11.67° C | 96% | 1006.9 hPa | 2.29 mm | - | 0 W/m² | - |
* Rain latest hour (hover to see other rain measurements)
** Current wind speed in m/s (hover to see current wind gust speed)